| time (UTC) | temp C | wind direction | speed KPH | gust KPH | rain 1hr cm | rain 24hr cm | rain mn cm | humidity % | barometer mb |
| 20260906131828 | -17 | 350 | 3.2 | 6.4 | 0.00 | 0.10 | 0.00 | 1012.9 | |
| 20260906130828 | -17 | 355 | 4.8 | 12.9 | 0.00 | 0.10 | 0.00 | 1012.9 | |
| 20260906130326 | -17 | 5 | 3.2 | 12.9 | 0.00 | 0.10 | 0.00 | 1013.0 | |
| 20260906125825 | -17 | 0 | 1.6 | 4.8 | 0.00 | 0.10 | 0.00 | 1013.0 | |
| 20260906125325 | -17 | 0 | 3.2 | 9.7 | 0.00 | 0.10 | 0.00 | 1012.9 | |
| 20260906124825 | -17 | 355 | 3.2 | 9.7 | 0.00 | 0.10 | 0.00 | 1012.8 | |
| 20260906124324 | -17 | 327 | 1.6 | 4.8 | 0.00 | 0.10 | 0.00 | 1012.8 | |
| 20260906123824 | -17 | 327 | 1.6 | 14.5 | 0.00 | 0.10 | 0.00 | 1012.7 | |
| 20260906121323 | -17 | 335 | 3.2 | 6.4 | 0.00 | 0.10 | 0.00 | 1012.9 | |
| 20260906120823 | -17 | 335 | 3.2 | 6.4 | 0.00 | 0.10 | 0.00 | 1012.8 | |
| 20260906115822 | -17 | 335 | 1.6 | 4.8 | 0.00 | 0.10 | 0.00 | 1012.6 | |
| 20260906115324 | -17 | 335 | 0.0 | 3.2 | 0.00 | 0.10 | 0.00 | 1012.6 | |
| 20260906114822 | -17 | 335 | 0.0 | 3.2 | 0.00 | 0.10 | 0.00 | 1012.7 | |
| 20260906114322 | -17 | 335 | 1.6 | 3.2 | 0.00 | 0.10 | 0.00 | 1012.6 | |
| 20260906113818 | -17 | 335 | 0.0 | 3.2 | 0.00 | 0.10 | 0.00 | 1012.6 | |
| 20260906113318 | -17 | 335 | 0.0 | 0.0 | 0.00 | 0.10 | 0.00 | 1012.5 | |
| 20260906112818 | -17 | 335 | 0.0 | 0.0 | 0.00 | 0.10 | 0.00 | 1012.5 | |
| 20260906112317 | -17 | 335 | 0.0 | 0.0 | 0.00 | 0.10 | 0.00 | 1012.6 | |
| 20260906111817 | -17 | 335 | 0.0 | 0.0 | 0.00 | 0.10 | 0.00 | 1012.5 | |
| 20260906111317 | -17 | 335 | 0.0 | 0.0 | 0.00 | 0.10 | 0.00 | 1012.5 | |
| 20260906110814 | -17 | 335 | 0.0 | 0.0 | 0.00 | 0.10 | 0.00 | 1012.5 | |
| 20260906110314 | -17 | 335 | 0.0 | 1.6 | 0.00 | 0.10 | 0.00 | 1012.5 | |
| 20260906105314 | -17 | 335 | 0.0 | 1.6 | 0.00 | 0.10 | 0.00 | 1012.2 | |
| 20260906104310 | -17 | 335 | 0.0 | 0.0 | 0.00 | 0.10 | 0.00 | 1012.2 | |
| 20260906103810 | -17 | 335 | 0.0 | 0.0 | 0.00 | 0.10 | 0.00 | 1012.2 | |
| 20260906103310 | -17 | 335 | 0.0 | 1.6 | 0.00 | 0.10 | 0.00 | 1012.1 | |
| 20260906102810 | -17 | 335 | 0.0 | 3.2 | 0.00 | 0.10 | 0.00 | 1012.1 | |
| 20260906102310 | -17 | 335 | 0.0 | 3.2 | 0.00 | 0.10 | 0.00 | 1012.0 | |
| 20260906100810 | -17 | 335 | 0.0 | 1.6 | 0.00 | 0.10 | 0.00 | 1011.8 | |
| 20260906100309 | -17 | 335 | 0.0 | 1.6 | 0.00 | 0.10 | 0.00 | 1011.7 | |
| 20260906095809 | -17 | 335 | 0.0 | 0.0 | 0.00 | 0.10 | 0.00 | 1011.7 | |
| 20260906095309 | -17 | 335 | 0.0 | 0.0 | 0.00 | 0.10 | 0.00 | 1011.8 | |
| 20260906094808 | -17 | 335 | 0.0 | 0.0 | 0.00 | 0.10 | 0.00 | 1011.7 | |
| 20260906094308 | -17 | 335 | 0.0 | 3.2 | 0.00 | 0.10 | 0.00 | 1011.7 | |
| 20260906093808 | -17 | 335 | 1.6 | 3.2 | 0.00 | 0.10 | 0.00 | 1011.7 | |
| 20260906093308 | -17 | 335 | 0.0 | 3.2 | 0.00 | 0.10 | 0.00 | 1011.7 | |
| 20260906091808 | -17 | 335 | 0.0 | 1.6 | 0.00 | 0.10 | 0.00 | 1011.6 | |
| 20260906091308 | -17 | 335 | 0.0 | 1.6 | 0.00 | 0.10 | 0.00 | 1011.5 | |
| 20260906090808 | -17 | 335 | 0.0 | 0.0 | 0.00 | 0.10 | 0.00 | 1011.5 | |
| 20260906090307 | -17 | 335 | 0.0 | 0.0 | 0.00 | 0.10 | 0.00 | 1011.4 | |
| 20260906085807 | -17 | 335 | 0.0 | 0.0 | 0.00 | 0.10 | 0.00 | 1011.3 | |
| 20260906085307 | -17 | 335 | 0.0 | 0.0 | 0.00 | 0.10 | 0.00 | 1011.3 | |
| 20260906084807 | -17 | 335 | 0.0 | 0.0 | 0.00 | 0.10 | 0.00 | 1011.2 | |
| 20260906084306 | -17 | 335 | 0.0 | 0.0 | 0.00 | 0.10 | 0.00 | 1011.2 | |
| 20260906083806 | -17 | 335 | 0.0 | 3.2 | 0.00 | 0.10 | 0.00 | 1011.2 | |
| 20260906082806 | -17 | 335 | 0.0 | 3.2 | 0.00 | 0.10 | 0.00 | 1011.3 | |
| 20260906082307 | -17 | 335 | 0.0 | 1.6 | 0.00 | 0.10 | 0.00 | 1011.2 | |
| 20260906081806 | -17 | 335 | 0.0 | 0.0 | 0.00 | 0.10 | 0.00 | 1011.0 | |
| 20260906081307 | -17 | 335 | 0.0 | 0.0 | 0.00 | 0.10 | 0.00 | 1011.1 | |
| 20260906080806 | -17 | 335 | 0.0 | 0.0 | 0.00 | 0.10 | 0.00 | 1011.3 | |
| 20260906075306 | -17 | 335 | 0.0 | 1.6 | 0.00 | 0.10 | 0.00 | 1011.2 | |
| 20260906074806 | -17 | 335 | 0.0 | 0.0 | 0.00 | 0.10 | 0.00 | 1011.1 | |
| 20260906074306 | -17 | 335 | 0.0 | 0.0 | 0.00 | 0.10 | 0.00 | 1011.0 | |
| 20260906073303 | -17 | 335 | 0.0 | 1.6 | 0.00 | 0.10 | 0.00 | 1011.3 | |
| 20260906072802 | -17 | 335 | 0.0 | 3.2 | 0.00 | 0.10 | 0.00 | 1011.1 | |
| 20260906072305 | -17 | 335 | 0.0 | 3.2 | 0.00 | 0.10 | 0.00 | 1011.0 | |
| 20260906071800 | -17 | 335 | 0.0 | 3.2 | 0.00 | 0.10 | 0.00 | 1011.0 | |
| 20260906071300 | -17 | 335 | 1.6 | 3.2 | 0.00 | 0.10 | 0.00 | 1011.1 | |
| 20260906065801 | -17 | 335 | 1.6 | 4.8 | 0.00 | 0.10 | 0.00 | 1011.3 | |
| 20260906065300 | -17 | 335 | 1.6 | 4.8 | 0.00 | 0.10 | 0.00 | 1011.4 | |
| 20260906064800 | -17 | 335 | 0.0 | 3.2 | 0.00 | 0.10 | 0.00 | 1011.4 | |
| 20260906064300 | -17 | 335 | 0.0 | 0.0 | 0.00 | 0.10 | 0.00 | 1011.4 | |
| 20260906063801 | -17 | 335 | 0.0 | 1.6 | 0.00 | 0.10 | 0.00 | 1011.6 | |
| 20260906063300 | -17 | 335 | 0.0 | 3.2 | 0.00 | 0.10 | 0.00 | 1011.6 | |
| 20260906062802 | -17 | 335 | 0.0 | 4.8 | 0.00 | 0.10 | 0.00 | 1011.6 | |
| 20260906062300 | -17 | 335 | 1.6 | 6.4 | 0.00 | 0.10 | 0.00 | 1011.7 | |
| 20260906061802 | -17 | 335 | 1.6 | 8.0 | 0.00 | 0.10 | 0.00 | 1011.7 | |
| 20260906061300 | -17 | 335 | 1.6 | 8.0 | 0.00 | 0.10 | 0.00 | 1011.7 | |
| 20260906060801 | -17 | 323 | 1.6 | 6.4 | 0.00 | 0.10 | 0.00 | 1011.8 | |
| 20260906060300 | -17 | 323 | 1.6 | 6.4 | 0.00 | 0.10 | 0.00 | 1011.7 | |
| 20260906055759 | -17 | 323 | 0.0 | 3.2 | 0.00 | 0.10 | 0.00 | 1011.9 | |
| 20260906054759 | -17 | 323 | 1.6 | 4.8 | 0.00 | 0.10 | 0.00 | 1011.8 | |
| 20260906054256 | -17 | 323 | 1.6 | 6.4 | 0.00 | 0.10 | 0.00 | 1011.9 | |
| 20260906053754 | -17 | 323 | 1.6 | 8.0 | 0.00 | 0.10 | 0.00 | 1011.9 | |
| 20260906053253 | -17 | 323 | 1.6 | 8.0 | 0.00 | 0.10 | 0.00 | 1011.9 | |
| 20260906052752 | -17 | 308 | 1.6 | 8.0 | 0.00 | 0.10 | 0.00 | 1012.0 | |
| 20260906052253 | -17 | 308 | 1.6 | 8.0 | 0.00 | 0.10 | 0.00 | 1012.1 | |
| 20260906051753 | -17 | 302 | 1.6 | 4.8 | 0.00 | 0.10 | 0.00 | 1012.1 | |
| 20260906051253 | -17 | 302 | 1.6 | 4.8 | 0.00 | 0.10 | 0.00 | 1012.1 | |
| 20260906050751 | -17 | 302 | 3.2 | 4.8 | 0.00 | 0.10 | 0.00 | 1012.0 | |
| 20260906050252 | -17 | 302 | 3.2 | 6.4 | 0.00 | 0.10 | 0.00 | 1011.8 | |
| 20260906045752 | -17 | 302 | 3.2 | 9.7 | 0.00 | 0.10 | 0.00 | 1011.9 | |
| 20260906045254 | -17 | 302 | 3.2 | 9.7 | 0.00 | 0.10 | 0.00 | 1011.9 | |
| 20260906042249 | -17 | 286 | 1.6 | 9.7 | 0.00 | 0.10 | 0.00 | 1011.8 | |
| 20260906041748 | -17 | 286 | 3.2 | 9.7 | 0.00 | 0.10 | 0.00 | 1011.7 | |
| 20260906041248 | -17 | 286 | 1.6 | 6.4 | 0.00 | 0.10 | 0.00 | 1011.7 | |
| 20260906040748 | -17 | 244 | 1.6 | 4.8 | 0.00 | 0.10 | 0.00 | 1011.5 | |
| 20260906040246 | -17 | 244 | 1.6 | 6.4 | 0.00 | 0.10 | 0.00 | 1011.5 | |
| 20260906034744 | -17 | 235 | 1.6 | 6.4 | 0.00 | 0.10 | 0.10 | 1011.3 | |
| 20260906034245 | -17 | 218 | 3.2 | 6.4 | 0.00 | 0.10 | 0.10 | 1011.4 | |
| 20260906033744 | -17 | 217 | 3.2 | 6.4 | 0.00 | 0.10 | 0.10 | 1011.5 | |
| 20260906033246 | -17 | 218 | 3.2 | 6.4 | 0.00 | 0.10 | 0.10 | 1011.4 | |
| 20260906032745 | -17 | 218 | 4.8 | 6.4 | 0.00 | 0.10 | 0.10 | 1011.5 | |
| 20260906032244 | -17 | 218 | 3.2 | 6.4 | 0.00 | 0.10 | 0.10 | 1011.5 | |
| 20260906031744 | -17 | 218 | 3.2 | 8.0 | 0.00 | 0.10 | 0.10 | 1011.5 | |
| 20260906031246 | -17 | 217 | 4.8 | 8.0 | 0.00 | 0.10 | 0.10 | 1011.7 | |
| 20260906021740 | -17 | 212 | 3.2 | 9.7 | 0.00 | 0.10 | 0.10 | 1012.4 | |
| 20260906021240 | -17 | 206 | 3.2 | 9.7 | 0.00 | 0.10 | 0.10 | 1012.4 | |
| 20260906020740 | -17 | 146 | 3.2 | 11.3 | 0.00 | 0.10 | 0.10 | 1012.5 | |
| 20260906020241 | -17 | 223 | 3.2 | 11.3 | 0.00 | 0.10 | 0.10 | 1012.5 | |
| 20260906015741 | -17 | 208 | 3.2 | 8.0 | 0.00 | 0.10 | 0.10 | 1012.6 | |
| 20260906015241 | -17 | 175 | 3.2 | 8.0 | 0.00 | 0.10 | 0.10 | 1012.5 | |
| 20260906014740 | -17 | 225 | 3.2 | 9.7 | 0.00 | 0.10 | 0.10 | 1012.4 | |
| 20260906014240 | -17 | 217 | 3.2 | 9.7 | 0.00 | 0.10 | 0.10 | 1012.5 | |
| 20260906013740 | -17 | 217 | 3.2 | 9.7 | 0.00 | 0.10 | 0.10 | 1012.3 | |
| 20260906013240 | -17 | 74 | 4.8 | 9.7 | 0.00 | 0.10 | 0.10 | 1012.2 | |
| 20260906012740 | -17 | 166 | 3.2 | 11.3 | 0.00 | 0.10 | 0.10 | 1012.1 | |
| 20260906012240 | -17 | 194 | 1.6 | 11.3 | 0.00 | 0.10 | 0.10 | 1012.0 | |
| 20260906011741 | -17 | 203 | 3.2 | 14.5 | 0.00 | 0.10 | 0.10 | 1012.2 | |
| 20260906011240 | -17 | 148 | 3.2 | 16.1 | 0.00 | 0.10 | 0.10 | 1012.1 | |
| 20260906010240 | -17 | 123 | 1.6 | 11.3 | 0.03 | 0.10 | 0.10 | 1012.3 | |
| 20260906005740 | -17 | 149 | 3.2 | 8.0 | 0.03 | 0.10 | 0.10 | 1012.0 | |
| 20260906004238 | -17 | 205 | 1.6 | 6.4 | 0.05 | 0.10 | 0.10 | 1011.8 | |
| 20260906002236 | -17 | 77 | 0.0 | 3.2 | 0.08 | 0.10 | 0.10 | 1011.9 | |
| 20260906001736 | -17 | 77 | 0.0 | 4.8 | 0.08 | 0.10 | 0.10 | 1011.6 | |
| 20260906000735 | -17 | 98 | 1.6 | 6.4 | 0.08 | 0.08 | 0.08 | 1011.0 | |
| 20260906000235 | -17 | 96 | 3.2 | 9.7 | 0.08 | 0.08 | 0.08 | 1010.8 | |
| 20260905235733 | -17 | 104 | 1.6 | 14.5 | 0.08 | 0.08 | 0.08 | 1010.9 | |
| 20260905235232 | -17 | 88 | 1.6 | 14.5 | 0.08 | 0.08 | 0.08 | 1011.5 | |
| 20260905234732 | -17 | 140 | 3.2 | 14.5 | 0.05 | 0.05 | 0.05 | 1011.6 | |
| 20260905234230 | -17 | 166 | 4.8 | 16.1 | 0.05 | 0.05 | 0.05 | 1011.6 | |
| 20260905233231 | -17 | 170 | 4.8 | 12.9 | 0.05 | 0.05 | 0.05 | 1011.7 | |
| 20260905232730 | -17 | 134 | 6.4 | 25.7 | 0.05 | 0.05 | 0.05 | 1011.9 | |
| 20260905232230 | -17 | 153 | 6.4 | 25.7 | 0.03 | 0.03 | 0.03 | 1012.0 | |
| 20260905231730 | -17 | 159 | 4.8 | 14.5 | 0.03 | 0.03 | 0.03 | 1012.0 | |
| 20260905231231 | -17 | 128 | 6.4 | 16.1 | 0.00 | 0.00 | 0.00 | 1011.8 | |
| 20260905230731 | -17 | 94 | 8.0 | 38.6 | 0.00 | 0.00 | 0.00 | 1011.4 | |
| 20260905230231 | -17 | 69 | 12.9 | 38.6 | 0.00 | 0.00 | 0.00 | 1011.5 | |
| 20260905225731 | -17 | 265 | 14.5 | 30.6 | 0.00 | 0.00 | 0.00 | 1011.3 | |
| 20260905225231 | -17 | 316 | 16.1 | 40.2 | 0.00 | 0.00 | 0.00 | 1010.9 | |
| 20260905223730 | -17 | 301 | 8.0 | 33.8 | 0.00 | 0.00 | 0.00 | 1010.1 | |
| 20260905223230 | -17 | 292 | 4.8 | 8.0 | 0.00 | 0.00 | 0.00 | 1009.7 | |
| 20260905222729 | -17 | 224 | 6.4 | 9.7 | 0.00 | 0.00 | 0.00 | 1009.3 | |
| 20260905222229 | -17 | 224 | 6.4 | 11.3 | 0.00 | 0.00 | 0.00 | 1009.2 | |
| 20260905221730 | -17 | 226 | 8.0 | 12.9 | 0.00 | 0.00 | 0.00 | 1009.1 | |
| 20260905220231 | -17 | 220 | 8.0 | 17.7 | 0.00 | 0.00 | 0.00 | 1009.4 | |
| 20260905215230 | -17 | 231 | 6.4 | 11.3 | 0.00 | 0.00 | 0.00 | 1010.0 | |
| 20260905214730 | -17 | 227 | 6.4 | 14.5 | 0.00 | 0.00 | 0.00 | 1009.8 | |
| 20260905214230 | -17 | 225 | 6.4 | 14.5 | 0.00 | 0.00 | 0.00 | 1009.8 | |
| 20260905213730 | -17 | 221 | 4.8 | 9.7 | 0.00 | 0.00 | 0.00 | 1009.8 | |
| 20260905213230 | -17 | 220 | 3.2 | 9.7 | 0.00 | 0.00 | 0.00 | 1009.5 | |
| 20260905212228 | -17 | 223 | 6.4 | 20.9 | 0.00 | 0.00 | 0.00 | 1009.3 | |
| 20260905211729 | -17 | 221 | 8.0 | 20.9 | 0.00 | 0.00 | 0.00 | 1009.4 | |
| 20260905211229 | -17 | 224 | 6.4 | 12.9 | 0.00 | 0.00 | 0.00 | 1009.5 | |
| 20260905210727 | -17 | 222 | 6.4 | 11.3 | 0.00 | 0.00 | 0.00 | 1009.3 | |
| 20260905210227 | -17 | 222 | 8.0 | 17.7 | 0.00 | 0.00 | 0.00 | 1009.3 | |
| 20260905205726 | -17 | 223 | 9.7 | 17.7 | 0.00 | 0.00 | 0.00 | 1009.3 | |
| 20260905205227 | -17 | 229 | 9.7 | 17.7 | 0.00 | 0.00 | 0.00 | 1009.3 | |
| 20260905204725 | -17 | 219 | 8.0 | 14.5 | 0.00 | 0.00 | 0.00 | 1009.1 | |
| 20260905204225 | -17 | 220 | 6.4 | 12.9 | 0.00 | 0.00 | 0.00 | 1009.0 | |
| 20260905201223 | -17 | 223 | 4.8 | 12.9 | 0.00 | 0.00 | 0.00 | 1009.3 | |
| 20260905200225 | -17 | 226 | 4.8 | 9.7 | 0.00 | 0.00 | 0.00 | 1009.4 | |
| 20260905195223 | -17 | 225 | 4.8 | 11.3 | 0.00 | 0.00 | 0.00 | 1009.5 | |
| 20260905194722 | -17 | 208 | 4.8 | 8.0 | 0.00 | 0.00 | 0.00 | 1009.6 | |
| 20260905193722 | -17 | 215 | 4.8 | 11.3 | 0.00 | 0.00 | 0.00 | 1009.6 | |
| 20260905193222 | -17 | 136 | 3.2 | 11.3 | 0.00 | 0.00 | 0.00 | 1009.5 | |
| 20260905192722 | -17 | 161 | 3.2 | 11.3 | 0.00 | 0.00 | 0.00 | 1009.6 | |
| 20260905192223 | -17 | 189 | 3.2 | 11.3 | 0.00 | 0.00 | 0.00 | 1009.7 | |
| 20260905191721 | -17 | 205 | 4.8 | 8.0 | 0.00 | 0.00 | 0.00 | 1009.8 | |
| 20260905191222 | -17 | 169 | 3.2 | 8.0 | 0.00 | 0.00 | 0.00 | 1010.0 | |
| 20260905190723 | -17 | 239 | 3.2 | 9.7 | 0.00 | 0.00 | 0.00 | 1010.1 | |
| 20260905190220 | -17 | 0 | 4.8 | 16.1 | 0.00 | 0.00 | 0.00 | 1010.4 | |
| 20260905185721 | -17 | 332 | 4.8 | 16.1 | 0.00 | 0.00 | 0.00 | 1010.4 | |
| 20260905185219 | -17 | 232 | 3.2 | 11.3 | 0.00 | 0.00 | 0.00 | 1010.4 | |
| 20260905184719 | -17 | 266 | 3.2 | 12.9 | 0.00 | 0.00 | 0.00 | 1010.5 | |
| 20260905184219 | -17 | 291 | 4.8 | 12.9 | 0.00 | 0.00 | 0.00 | 1010.5 | |
| 20260905183721 | -17 | 252 | 4.8 | 8.0 | 0.00 | 0.00 | 0.00 | 1010.6 | |
| 20260905183221 | -17 | 319 | 3.2 | 9.7 | 0.00 | 0.00 | 0.00 | 1010.5 | |
| 20260905182721 | -17 | 275 | 3.2 | 16.1 | 0.00 | 0.00 | 0.00 | 1010.7 | |
| 20260905182221 | -17 | 307 | 4.8 | 17.7 | 0.00 | 0.00 | 0.00 | 1010.7 | |
| 20260905181721 | -17 | 268 | 6.4 | 17.7 | 0.00 | 0.00 | 0.00 | 1010.8 | |
| 20260905181218 | -17 | 331 | 4.8 | 14.5 | 0.00 | 0.00 | 0.00 | 1010.9 | |
| 20260905175717 | -17 | 221 | 3.2 | 8.0 | 0.00 | 0.00 | 0.00 | 1011.1 | |
| 20260905175218 | -17 | 217 | 4.8 | 11.3 | 0.00 | 0.00 | 0.00 | 1011.1 | |
| 20260905174719 | -17 | 230 | 4.8 | 11.3 | 0.00 | 0.00 | 0.00 | 1011.3 | |
| 20260905174218 | -17 | 245 | 4.8 | 11.3 | 0.00 | 0.00 | 0.00 | 1011.3 | |
| 20260905173717 | -17 | 224 | 6.4 | 14.5 | 0.00 | 0.00 | 0.00 | 1011.5 | |
| 20260905173219 | -17 | 226 | 6.4 | 16.1 | 0.00 | 0.00 | 0.00 | 1011.4 | |
| 20260905172718 | -17 | 229 | 6.4 | 16.1 | 0.00 | 0.00 | 0.00 | 1011.5 | |
| 20260905172215 | -17 | 313 | 4.8 | 12.9 | 0.00 | 0.00 | 0.00 | 1011.6 | |
| 20260905171715 | -17 | 314 | 6.4 | 16.1 | 0.00 | 0.00 | 0.00 | 1011.6 | |
| 20260905171216 | -17 | 236 | 4.8 | 16.1 | 0.00 | 0.00 | 0.00 | 1011.6 | |
| 20260905170716 | -17 | 225 | 4.8 | 12.9 | 0.00 | 0.00 | 0.00 | 1011.7 | |
| 20260905170215 | -17 | 225 | 6.4 | 12.9 | 0.00 | 0.00 | 0.00 | 1011.8 | |
| 20260905165713 | -17 | 223 | 4.8 | 14.5 | 0.00 | 0.00 | 0.00 | 1011.9 | |
| 20260905165214 | -17 | 230 | 4.8 | 14.5 | 0.00 | 0.00 | 0.00 | 1012.0 | |
| 20260905163712 | -17 | 232 | 8.0 | 16.1 | 0.00 | 0.00 | 0.00 | 1012.3 | |
| 20260905163211 | -17 | 223 | 8.0 | 14.5 | 0.00 | 0.00 | 0.00 | 1012.4 | |
| 20260905162211 | -17 | 222 | 8.0 | 16.1 | 0.00 | 0.00 | 0.00 | 1012.6 | |
| 20260905161712 | -17 | 229 | 8.0 | 17.7 | 0.00 | 0.00 | 0.00 | 1012.7 | |
| 20260905161211 | -17 | 227 | 8.0 | 17.7 | 0.00 | 0.00 | 0.00 | 1012.8 | |
| 20260905160710 | -17 | 227 | 9.7 | 14.5 | 0.00 | 0.00 | 0.00 | 1012.8 | |
| 20260905160210 | -17 | 225 | 9.7 | 19.3 | 0.00 | 0.00 | 0.00 | 1012.8 | |
| 20260905155209 | -17 | 225 | 6.4 | 12.9 | 0.00 | 0.00 | 0.00 | 1012.9 | |
| 20260905154709 | -17 | 236 | 4.8 | 14.5 | 0.00 | 0.00 | 0.00 | 1012.9 | |
| 20260905154209 | -17 | 343 | 4.8 | 14.5 | 0.00 | 0.00 | 0.00 | 1013.0 | |
| 20260905153210 | -17 | 228 | 6.4 | 12.9 | 0.00 | 0.00 | 0.00 | 1013.0 | |
| 20260905152710 | -17 | 226 | 8.0 | 12.9 | 0.00 | 0.00 | 0.00 | 1012.9 | |
| 20260905152210 | -17 | 227 | 6.4 | 14.5 | 0.00 | 0.00 | 0.00 | 1012.9 | |
| 20260905151709 | -17 | 223 | 6.4 | 14.5 | 0.00 | 0.00 | 0.00 | 1013.0 | |
| 20260905150208 | -17 | 234 | 8.0 | 16.1 | 0.00 | 0.00 | 0.00 | 1013.1 | |
| 20260905145708 | -17 | 232 | 6.4 | 16.1 | 0.00 | 0.00 | 0.00 | 1013.2 | |
| 20260905145207 | -17 | 236 | 6.4 | 14.5 | 0.00 | 0.00 | 0.00 | 1013.3 | |
| 20260905144707 | -17 | 279 | 6.4 | 12.9 | 0.00 | 0.00 | 0.00 | 1013.2 | |
| 20260905144207 | -17 | 220 | 6.4 | 12.9 | 0.00 | 0.00 | 0.00 | 1013.3 | |
| 20260905143708 | -17 | 261 | 6.4 | 20.9 | 0.00 | 0.00 | 0.00 | 1013.4 | |
| 20260905143207 | -17 | 234 | 6.4 | 20.9 | 0.00 | 0.00 | 0.00 | 1013.3 | |
| 20260905142708 | -17 | 229 | 4.8 | 16.1 | 0.00 | 0.00 | 0.00 | 1013.3 | |
| 20260905142207 | -17 | 225 | 4.8 | 16.1 | 0.00 | 0.00 | 0.00 | 1013.3 | |
| 20260905141707 | -17 | 288 | 4.8 | 14.5 | 0.00 | 0.00 | 0.00 | 1013.2 | |
| 20260905141208 | -17 | 230 | 4.8 | 9.7 | 0.00 | 0.00 | 0.00 | 1013.3 | |
| 20260905140706 | -17 | 229 | 4.8 | 12.9 | 0.00 | 0.00 | 0.00 | 1013.3 | |
| 20260905135705 | -17 | 302 | 4.8 | 12.9 | 0.00 | 0.00 | 0.00 | 1013.3 | |
| 20260905135205 | -17 | 227 | 4.8 | 11.3 | 0.00 | 0.00 | 0.00 | 1013.4 | |
| 20260905134705 | -17 | 311 | 4.8 | 9.7 | 0.00 | 0.00 | 0.00 | 1013.4 | |
| 20260905134204 | -17 | 246 | 4.8 | 8.0 | 0.00 | 0.00 | 0.00 | 1013.4 | |
| 20260905133705 | -17 | 225 | 4.8 | 11.3 | 0.00 | 0.00 | 0.00 | 1013.4 | |
| 20260905132703 | -17 | 273 | 4.8 | 9.7 | 0.00 | 0.00 | 0.00 | 1013.4 |